Meriden, CT

1:20 PM EDT on April 24, 2017 (GMT -0400)
Meriden Markham Municipal

Weather History for KMMK - November, 2012

Change the Weather History Date:

Sunday, November 11, 2012

  Actual Average (KOXC) Record (KOXC)
Temperature  
Mean Temperature 49 °F -  
Max Temperature 63 °F 47 °F 64 °F (2002)
Min Temperature 35 °F 31 °F 21 °F (2007)
Degree Days  
Heating Degree Days 16    
Moisture  
Dew Point 43 °F    
Average Humidity 84    
Maximum Humidity 100    
Minimum Humidity 53    
Precipitation  
Precipitation 0.00 in - - ()
Sea Level Pressure  
Sea Level Pressure 30.48 in    
Wind  
Wind Speed 3 mph (South)    
Max Wind Speed 16 mph    
Max Gust Speed 18 mph    
Visibility 5 miles    
Events Fog    
Averages and records for this station are not official NWS values.
T = Trace of Precipitation, MM = Missing Value Source: NWS Daily Summary

Daily Weather History Graph

Daily Weather History Graph

Search for Another Location

Airport or City:

Trip Planner

Search our weather history database for the weather conditions in past years. The results will help you decide how hot, cold, wet, or windy it might be!

Date:

Astronomy

Nov. 11, 2012 Rise Set
Actual Time 6:35 AM EST 4:34 PM EST
Civil Twilight 6:06 AM EST 5:04 PM EST
Nautical Twilight 5:32 AM EST 5:37 PM EST
Astronomical Twilight 5:00 AM EST 6:09 PM EST
Moon 3:44 AM EST (11/11) 2:57 PM EST (11/11)
Length of Visible Light 10h 57m
Length of Day
9h 58m
Waning Crescent, 7% of the Moon is Illuminated
Nov 11
Waning Crescent
Nov 13
New
Nov 20
First Quarter
Nov 28
Full
Dec 6
Last Quarter

Hourly Weather History & Observations

Time (EST) Temp. Windchill Dew Point Humidity Pressure Visibility Wind Dir Wind Speed Gust Speed Precip Events Conditions
12:53 AM 45.0 °F - 41.0 °F 86% 30.44 in 9.0 mi Calm Calm - N/A   Overcast
1:53 AM 41.0 °F - 39.0 °F 93% 30.44 in 7.0 mi Calm Calm - N/A   Scattered Clouds
2:53 AM 39.9 °F - 37.9 °F 93% 30.44 in 6.0 mi Calm Calm - N/A   Clear
3:53 AM 39.0 °F - 36.0 °F 89% 30.46 in 5.0 mi Calm Calm - N/A   Mostly Cloudy
4:53 AM 37.9 °F - 37.0 °F 97% 30.46 in 4.0 mi Calm Calm - N/A   Mostly Cloudy
5:53 AM 37.9 °F - 35.1 °F 89% 30.48 in 3.0 mi Calm Calm - N/A   Clear
6:32 AM 37.4 °F - 35.6 °F 93% 30.49 in 1.8 mi Calm Calm - N/A   Clear
6:53 AM 36.0 °F - 34.0 °F 93% 30.49 in 2.5 mi Calm Calm - N/A   Clear
7:07 AM 35.6 °F - 35.6 °F 100% 30.48 in 1.2 mi Calm Calm - N/A   Clear
7:23 AM 39.2 °F - 37.4 °F 93% 30.50 in 2.5 mi Calm Calm - N/A   Clear
7:53 AM 42.1 °F - 39.0 °F 89% 30.51 in 3.0 mi Calm Calm - N/A   Partly Cloudy
8:53 AM 48.0 °F - 42.1 °F 80% 30.51 in 6.0 mi Calm Calm - N/A   Haze
9:53 AM 55.9 °F - 46.0 °F 69% 30.49 in 8.0 mi South 9.2 mph - N/A   Clear
10:53 AM 59.0 °F - 45.0 °F 60% 30.49 in 10.0 mi South 13.8 mph - N/A   Scattered Clouds
11:53 AM 60.1 °F - 46.0 °F 60% 30.46 in 10.0 mi South 16.1 mph - N/A   Clear
12:53 PM 62.1 °F - 46.0 °F 56% 30.44 in 10.0 mi South 11.5 mph - N/A   Clear
1:53 PM 63.0 °F - 46.0 °F 54% 30.43 in 10.0 mi South 15.0 mph 18.4 mph N/A   Clear
2:53 PM 62.1 °F - 45.0 °F 53% 30.44 in 10.0 mi South 10.4 mph 18.4 mph N/A   Clear
3:53 PM 60.1 °F - 45.0 °F 57% 30.45 in 10.0 mi South 10.4 mph - N/A   Clear
4:53 PM 57.0 °F - 46.9 °F 69% 30.46 in 10.0 mi South 10.4 mph - N/A   Clear
5:53 PM 55.0 °F - 46.9 °F 74% 30.47 in 10.0 mi South 6.9 mph - N/A   Clear
6:53 PM 54.0 °F - 48.0 °F 80% 30.48 in 10.0 mi South 8.1 mph - N/A   Clear
7:53 PM 52.0 °F - 48.0 °F 86% 30.48 in 8.0 mi South 6.9 mph - N/A   Clear
8:53 PM 48.9 °F - 46.9 °F 93% 30.50 in 5.0 mi Calm Calm - N/A   Clear
9:34 PM 46.4 °F - 44.6 °F 93% 30.50 in 1.8 mi Calm Calm - N/A   Clear
9:41 PM 46.4 °F - 44.6 °F 93% 30.50 in 0.8 mi Calm Calm - N/A   Mist
9:53 PM 45.0 °F - 44.1 °F 97% 30.50 in 0.2 mi Calm Calm - N/A Fog Fog
10:12 PM 44.6 °F 42.2 °F 42.8 °F 93% 30.49 in 0.8 mi South 4.6 mph - N/A   Mist
10:18 PM 44.6 °F 42.2 °F 42.8 °F 93% 30.49 in 1.2 mi South 4.6 mph - N/A   Scattered Clouds
10:53 PM 46.9 °F - 46.0 °F 97% 30.48 in 3.0 mi South 4.6 mph - N/A   Clear
11:21 PM 46.4 °F 44.3 °F 46.4 °F 100% 30.49 in 2.0 mi South 4.6 mph - N/A   Clear
11:39 PM 46.4 °F 45.2 °F 44.6 °F 93% 30.49 in 1.2 mi South 3.5 mph - N/A   Clear
11:45 PM 44.6 °F 43.1 °F 42.8 °F 93% 30.49 in 0.5 mi South 3.5 mph - N/A Fog Fog
11:53 PM 45.0 °F 43.5 °F 43.0 °F 93% 30.48 in 0.2 mi South 3.5 mph - N/A Fog Fog